Regional Weather Roundup
Issued by NWS

Home | Current Version | Previous Version | Text Only | Print | Product List | Glossary Off
Versions: 1 2 3 4 5 6 7 8 9 10 11 12 13 14 15 16 17 18 19 20 21 22 23 24 25 26 27 28 29 30 31 32 33 34 35 36 37 38 39 40 41 42 43 44 45 46 47 48 49 50

000
ASUS43 KMKX 232200
RWRWI

WISCONSIN REGIONAL WEATHER ROUNDUP
NATIONAL WEATHER SERVICE MILWAUKEE/SULLIVAN WI
400 PM CST MON JAN 23 2017

NOTE: "FAIR" INDICATES FEW OR NO CLOUDS BELOW 12,000 FEET WITH NO
SIGNIFICANT WEATHER AND/OR OBSTRUCTIONS TO VISIBILITY.

WIZ001-002-006>008-014>016-023>028-232300-
NORTHWEST WISCONSIN

CITY           SKY/WX    TMP DP  RH WIND       PRES   REMARKS
SUPERIOR ARPT  CLOUDY    36  35  96 W5        29.79S WCI  32
ASHLAND        CLOUDY    37  35  92 W5        29.79R WCI  33
HAYWARD        CLOUDY    36  32  85 CALM      29.79R
SIREN          CLOUDY    34  34  98 W5        29.80S WCI  30
CUMBERLAND     CLOUDY    32  32 100 W5        29.80R WCI  27
RICE LAKE      MIX PCPN  34  33  96 W5        29.82R WCI  30
CHETEK         CLOUDY    35  33  94 NW3       29.80S
LADYSMITH      CLOUDY    36  36  99 CALM      29.79R
EAU CLAIRE     CLOUDY    34  34 100 W3        29.80S
MENOMONIE        N/A    N/A N/A N/A MISG        N/A
NEW RICHMOND   CLOUDY    34  33  96 W6        29.81S FOG     WCI  29
OSCEOLA        CLOUDY    35  35 100 W3        29.83S
$$

WIZ003>005-009-010-017-018-232300-
NORTH CENTRAL WISCONSIN

CITY           SKY/WX    TMP DP  RH WIND       PRES   REMARKS
MANITOWISH WTR CLOUDY    34  34 100 CALM      29.73F FOG
ARBOR VITAE    CLOUDY    37  35  94 CALM      29.74R
WOODRUFF       CLOUDY    37  35  94 CALM      29.74R
RHINELANDER    CLOUDY    37  34  89 W6        29.74R WCI  32
EAGLE RIVER    CLOUDY    36  35  97 W6        29.73R WCI  31
LAND O LAKES   CLOUDY    37  35  94 CALM      29.75R
PHILLIPS       CLOUDY    35  35 100 CALM      29.75S
TOMAHAWK       CLOUDY    35  32  90 NW3       29.76R
MEDFORD        CLOUDY    34  33  99 W5        29.76R FOG     WCI  30
MERRILL        CLOUDY    37  34  90 W3          N/A
$$

WIZ029-030-035-036-043>047-232300-
CENTRAL WISCONSIN

CITY           SKY/WX    TMP DP  RH WIND       PRES   REMARKS
WAUSAU         CLOUDY    35  33  92 W7        29.75R WCI  29
MOSINEE        CLOUDY    36  36 100 W5        29.77R WCI  32
MARSHFIELD     FOG       34  33  96 W5        29.77R VSB 1/4 WCI  30
STEVENS POINT  CLOUDY    35  34  96 W5        29.78R WCI  31
WAUPACA        CLOUDY    39  35  83 CALM      29.77R
WAUTOMA        CLOUDY    36  34  92 W6        29.79R WCI  31
WISC RAPIDS    CLOUDY    36  35  96 NW6       29.79R WCI  31
CAMP DOUGLAS   NOT AVBL
$$

WIZ011>013-019>022-031-037>040-048>050-232300-
NORTHEAST WISCONSIN

CITY           SKY/WX    TMP DP  RH WIND       PRES   REMARKS
ANTIGO         CLOUDY    36  33  89 CALM      29.74R
SHAWANO        CLOUDY    41  35  79 CALM      29.76R
OCONTO         CLOUDY    37  35  90 N3        29.75R
STURGEON BAY   NOT AVBL
GREEN BAY      CLOUDY    39  36  89 NW3       29.77R
MANITOWOC      NOT AVBL
APPLETON       CLOUDY    37  37 100 SW8       29.75R WCI  31
CLINTONVILLE   CLOUDY    37  34  87 CALM      29.76R
OSHKOSH        CLOUDY    37  34  89 W5        29.76R WCI  33
$$

WIZ032>034-041-042-053>061-232300-
SOUTHWEST WISCONSIN

CITY           SKY/WX    TMP DP  RH WIND       PRES   REMARKS
LA CROSSE      CLOUDY    38  33  82 NW3       29.81S
SPARTA         CLOUDY    35  33  95 W6        29.82R WCI  30
VIROQUA        CLOUDY    34  34 100 CALM      29.79S
BOSCOBEL       CLOUDY    39  31  72 NW5       29.82R
PRAIRIE DU CHI CLOUDY    38  32  80 W5        29.81S WCI  34
PLATTEVILLE    CLOUDY    38  37  96 NW7       29.80R WCI  32
$$

WIZ056-057-062-063-064-067-068-232300-
SOUTH CENTRAL WISCONSIN

CITY           SKY/WX    TMP DP  RH WIND       PRES   REMARKS
REEDSBURG      CLOUDY    37  36  95 W7        29.78S WCI  31
BARABOO/DELLS  CLOUDY    37  35  93 W3        29.77S
LONE ROCK      NOT AVBL
MINERAL POINT  CLOUDY    37  36  93 NW8       29.78S WCI  31
MADISON        CLOUDY    37  35  92 NW7       29.78S FOG     WCI  32
MIDDLETON      CLOUDY    39  39 100 NW6       29.78S
WATERTOWN      CLOUDY    37  37  97 NW3       29.77R
MONROE         CLOUDY    37  36  93 NW7       29.77S WCI  32
JANESVILLE     CLOUDY    43  37  81 NW7       29.77R
$$

WIZ051-052-058>065-066-070>072-232300-
SOUTHEAST WISCONSIN

CITY           SKY/WX    TMP DP  RH WIND       PRES   REMARKS
MILWAUKEE      CLOUDY    43  36  76 NW9       29.76R
WAUKESHA       CLOUDY    36  36 100 NW9       29.77R WCI  29
MILWAUKEE/TIMM CLOUDY    39  34  81 W9        29.76S WCI  33
RACINE         CLOUDY    42  36  79 CALM      29.76R
KENOSHA        CLOUDY    42  37  82 NW6       29.75R
FOND DU LAC    CLOUDY    38  34  85 W5        29.77R WCI  34
SHEBOYGAN      MOCLDY    38  34  85 NW9       29.75R WCI  31
WEST BEND      CLOUDY    37  36  93 NW5       29.76R WCI  34
JUNEAU         CLOUDY    36  34  93 CALM      29.77S
$$

LSZ147-162-232300-
LAKE SUPERIOR

STATION/POSITION TIME  TEMP    WIND        PRES    WAVE
                       AIR SEA DIR/SP/G            HT/PER
                 (UTC) (F)     (DEG/KT/KT) (MB)    (FT/S)
DEVILS ISLAND    2100   34     220/  5/  6 1008.8R
PORT WING        2130   36     250/  4/  6 1009.1R
SAXON HARBOR     2140   35      CALM  /  2 1008.1S
$$

LMZ867-665-643>646-232300-
LAKE MICHIGAN

STATION/POSITION TIME  TEMP    WIND        PRES    WAVE
                       AIR SEA DIR/SP/G            HT/PER
                 (UTC) (F)     (DEG/KT/KT) (MB)    (FT/S)
NORTHPORT PIER   2140   33     330/  5/  7 1007.5S
SISTER BAY       2050   34        CALM       N/A
KEWAUNEE LAKESHO 2130   37     350/  5/  8 1006.8R
SHEBOYGAN LAKESH 2100   39     330/  6/  8 1007.3R
PORT WASHINGTON  2130   42     310/  5/  8 1008.5R
KENOSHA   LAKESH 2100   36      CALM  /  3 1007.5
$$

TC  - TEMPERATURE IN CELSIUS
VSB - VISIBILITY IN STATUTE MILES
WCI - WIND CHILL INDEX
HX  - HEAT INDEX





USA.gov is the U.S. government's official web portal to all federal, state and local government web resources and services.